DW7214 Weather Reports


time (UTC)temp
F
wind
direction
speed
knots
gust
knots
rain 1hr
in
rain 24hr
in
rain mn
in
humidity
%
barometer
mb
20260508114520 44 171 0.0 1.7 0.00 0.00 0.00 87 1019.6
20260508113025 44 282 0.0 1.7 0.00 0.00 0.00 87 1019.4
20260508111511 45 227 0.0 1.7 0.00 0.00 0.00 88 1019.3
20260508110012 45 250 0.0 1.7 0.00 0.00 0.00 87 1018.9
20260508104510 45 233 0.0 1.7 0.00 0.00 0.00 87 1018.7
20260508103012 45 238 0.0 1.7 0.00 0.00 0.00 86 1018.6
20260508101514 45 240 0.0 1.7 0.00 0.00 0.00 85 1018.5
20260508100014 46 174 0.0 1.7 0.00 0.00 0.00 88 1018.5
20260508094511 46 163 0.0 1.7 0.00 0.00 0.00 88 1018.4
20260508093016 46 196 0.9 2.6 0.00 0.00 0.00 88 1018.4
20260508091522 46 122 0.0 1.7 0.00 0.00 0.00 88 1018.2
20260508090016 46 26 0.0 2.6 0.00 0.00 0.00 88 1018.1
20260508084516 46 134 0.9 3.5 0.00 0.00 0.00 88 1018.1
20260508083014 47 115 0.9 2.6 0.00 0.00 0.00 88 1018.0
20260508081517 47 132 0.0 1.7 0.00 0.00 0.00 88 1017.9
20260508080015 47 71 0.0 1.7 0.00 0.00 0.00 87 1017.8
20260508074520 48 78 0.0 1.7 0.00 0.00 0.00 85 1017.8
20260508073016 48 103 0.9 1.7 0.00 0.00 0.00 85 1017.7
20260508071518 49 48 0.0 2.6 0.00 0.00 0.00 84 1017.6
20260508070016 50 126 0.0 1.7 0.00 0.00 0.00 83 1017.6
20260508064525 50 77 0.0 1.7 0.00 0.00 0.00 83 1017.6
20260508063018 51 95 0.0 2.6 0.00 0.00 0.00 82 1017.8
20260508061512 51 111 0.0 1.7 0.00 0.00 0.00 82 1017.7
20260508060012 52 52 0.0 1.7 0.00 0.00 0.00 81 1017.7
20260508054508 52 20 0.0 1.7 0.00 0.00 0.00 79 1017.7
20260508053014 53 360 0.9 1.7 0.00 0.00 0.00 77 1017.7
20260508051511 55 134 0.0 1.7 0.00 0.00 0.00 74 1017.7
20260508050015 56 111 0.9 2.6 0.00 0.00 0.00 72 1017.6
20260508044506 57 49 0.0 1.7 0.00 0.00 0.00 71 1017.5
20260508043012 57 107 0.0 1.7 0.00 0.00 0.00 71 1017.5
20260508041513 58 136 0.9 2.6 0.00 0.00 0.00 68 1017.4
20260508040013 59 109 0.0 1.7 0.00 0.00 0.00 68 1017.2
20260508034519 61 126 0.0 1.7 0.00 0.00 0.00 68 1016.8
20260508033011 62 227 0.0 1.7 0.00 0.00 0.00 68 1016.7
20260508031512 64 227 0.0 1.7 0.00 0.00 0.00 68 1016.6
20260508030012 65 177 0.0 2.6 0.00 0.00 0.00 61 1016.5
20260508024513 66 165 0.9 1.7 0.00 0.00 0.00 63 1016.5
20260508023014 67 110 0.0 2.6 0.00 0.00 0.00 61 1016.6
20260508021510 68 81 0.0 2.6 0.00 0.00 0.00 57 1016.7
20260508020019 69 121 2.6 6.1 0.00 0.00 0.00 56 1016.7
20260508014518 71 181 0.9 3.5 0.00 0.00 0.00 55 1016.6
20260508013014 71 40 0.9 3.5 0.00 0.00 0.00 53 1016.7
20260508011510 71 44 0.9 3.5 0.00 0.00 0.00 53 1016.9
20260508010013 72 155 0.9 3.5 0.00 0.00 0.00 51 1017.0
20260508004514 71 64 0.0 3.5 0.00 0.00 0.00 51 1016.9
20260508003024 71 136 1.7 3.5 0.00 0.00 0.00 49 1017.1
20260508001535 72 74 0.9 4.3 0.00 0.00 0.00 48 1017.3
20260508000012 71 61 0.9 4.3 0.00 0.00 0.00 49 1017.4
20260507234516 71 183 1.7 4.3 0.00 0.00 0.00 54 1017.4
20260507233019 71 66 0.9 3.5 0.00 0.00 0.00 53 1017.5
20260507231522 70 78 0.9 3.5 0.00 0.00 0.00 55 1017.6
20260507230019 70 85 0.9 3.5 0.00 0.00 0.00 53 1017.8
20260507224512 70 324 0.9 4.3 0.00 0.00 0.00 50 1018.1
20260507223021 69 186 0.9 4.3 0.00 0.00 0.00 50 1018.3
20260507221522 69 205 1.7 5.2 0.00 0.00 0.00 52 1018.5
20260507220036 69 139 0.9 6.1 0.00 0.00 0.00 50 1018.8
20260507214512 68 42 0.0 3.5 0.00 0.00 0.00 52 1018.9
20260507213017 68 63 1.7 3.5 0.00 0.00 0.00 53 1019.2
20260507211522 68 168 0.9 4.3 0.00 0.00 0.00 55 1019.3
20260507210022 66 209 1.7 4.3 0.00 0.00 0.00 57 1019.4
20260507204521 66 110 0.9 3.5 0.00 0.00 0.00 55 1019.6
20260507203016 65 190 0.9 4.3 0.00 0.00 0.00 56 1019.8
20260507201522 65 32 0.9 3.5 0.00 0.00 0.00 56 1020.1
20260507200022 64 65 1.7 5.2 0.00 0.00 0.00 58 1020.2
20260507194522 64 184 3.5 6.1 0.00 0.00 0.00 56 1020.3
20260507193028 64 53 0.9 5.2 0.00 0.00 0.00 58 1020.5
20260507191521 63 86 1.7 5.2 0.00 0.00 0.00 62 1020.7
20260507190021 62 120 0.9 7.0 0.00 0.00 0.00 59 1020.8
20260507184524 61 225 1.7 4.3 0.00 0.00 0.00 62 1020.9
20260507183026 60 344 1.7 4.3 0.00 0.00 0.00 63 1021.0
20260507181525 59 333 0.9 3.5 0.00 0.00 0.00 64 1021.1
20260507180024 59 338 0.9 2.6 0.00 0.00 0.00 65 1021.3
20260507174537 59 209 0.9 1.7 0.00 0.00 0.00 66 1021.5
20260507173030 57 54 0.9 3.5 0.00 0.00 0.00 72 1021.6
20260507171525 56 101 0.9 4.3 0.00 0.00 0.00 72 1021.6
20260507170036 56 337 0.9 6.1 0.00 0.00 0.00 73 1021.6
20260507164522 55 319 1.7 5.2 0.00 0.00 0.00 73 1021.7
20260507163026 55 352 1.7 5.2 0.00 0.00 0.00 1021.8
20260507161526 54 5 2.6 7.0 0.00 0.00 0.00 1021.7
20260507160026 54 293 0.9 5.2 0.00 0.00 0.00 73 1021.7
20260507154523 54 317 1.7 7.0 0.00 0.00 0.00 73 1021.7
20260507153025 54 286 1.7 5.2 0.00 0.00 0.00 74 1021.7
20260507151526 53 332 0.9 3.5 0.00 0.00 0.00 76 1021.8
20260507150016 53 287 1.7 5.2 0.00 0.00 0.00 75 1021.8
20260507144520 53 334 1.7 3.5 0.00 0.00 0.00 75 1021.8
20260507143028 53 323 0.0 2.6 0.00 0.00 0.00 77 1021.7
20260507141525 52 298 0.9 1.7 0.00 0.00 0.00 77 1021.7
20260507140030 52 309 0.9 1.7 0.00 0.00 0.00 78 1021.6
20260507134520 52 327 0.0 1.7 0.00 0.00 0.00 78 1021.5
20260507133023 52 328 0.0 1.7 0.00 0.00 0.00 78 1021.2
20260507131535 52 331 0.0 1.7 0.00 0.00 0.00 77 1021.3
20260507130025 52 304 0.9 1.7 0.00 0.00 0.00 77 1021.3
20260507124521 53 301 0.0 1.7 0.00 0.00 0.00 78 1021.3
20260507123024 53 277 0.0 1.7 0.00 0.00 0.00 79 1021.4
20260507121526 53 281 0.0 1.7 0.00 0.00 0.00 79 1021.4
20260507120023 53 286 0.0 1.7 0.00 0.00 0.00 79 1021.6